FW6148 Weather Reports


Display with metric or nautical units.
time (UTC)temp
F
wind
direction
speed
MPH
gust
MPH
rain 1hr
in
rain 24hr
in
rain mn
in
humidity
%
barometer
mb
20260905125528 58 360 1.0 5.0 0.00 0.00 0.00 50 1015.9
20260905125026 58 360 1.0 9.0 0.00 0.00 0.00 50 1015.9
20260905124551 59 360 3.0 12.0 0.00 0.00 0.00 50 1015.9
20260905124025 59 360 6.0 12.0 0.00 0.00 0.00 50 1015.9
20260905123525 58 360 8.0 12.0 0.00 0.00 0.00 51 1015.7
20260905123045 57 360 5.0 10.0 0.00 0.00 0.00 53 1015.6
20260905122530 56 360 2.0 8.0 0.00 0.00 0.00 54 1015.6
20260905122027 55 360 1.0 3.0 0.00 0.00 0.00 54 1015.6
20260905121551 56 0 0.0 4.0 0.00 0.00 0.00 54 1015.6
20260905121029 56 360 2.0 4.0 0.00 0.00 0.00 53 1015.6
20260905120527 56 360 1.0 4.0 0.00 0.00 0.00 52 1015.5
20260905120049 57 360 2.0 4.0 0.00 0.00 0.00 52 1015.5
20260905115528 58 360 2.0 4.0 0.00 0.00 0.00 51 1015.5
20260905115026 58 360 1.0 5.0 0.00 0.00 0.00 50 1015.5
20260905114545 59 360 2.0 9.0 0.00 0.00 0.00 50 1015.4
20260905114025 59 360 3.0 9.0 0.00 0.00 0.00 49 1015.5
20260905113526 60 360 2.0 9.0 0.00 0.00 0.00 48 1015.5
20260905113051 60 360 3.0 9.0 0.00 0.00 0.00 49 1015.3
20260905112526 59 360 1.0 8.0 0.00 0.00 0.00 49 1015.3
20260905112030 59 360 3.0 11.0 0.00 0.00 0.00 49 1015.2
20260905111603 59 360 3.0 11.0 0.00 0.00 0.00 50 1015.2
20260905111025 59 360 4.0 11.0 0.00 0.00 0.00 51 1015.2
20260905110526 58 360 2.0 4.0 0.00 0.00 0.00 51 1015.1
20260905110056 58 360 2.0 3.0 0.00 0.00 0.00 51 1015.0
20260905105533 59 360 2.0 3.0 0.00 0.00 0.00 50 1015.0
20260905105026 59 360 2.0 5.0 0.00 0.00 0.00 50 1015.2
20260905104557 59 360 2.0 5.0 0.00 0.00 0.00 50 1015.0
20260905104025 59 360 2.0 4.0 0.00 0.00 0.00 50 1015.0
20260905103526 59 360 2.0 4.0 0.00 0.00 0.00 50 1015.0
20260905103043 59 360 3.0 5.0 0.00 0.00 0.00 50 1015.0
20260905102526 59 360 2.0 5.0 0.00 0.00 0.00 50 1014.8
20260905102026 59 360 3.0 4.0 0.00 0.00 0.00 50 1014.7
20260905101552 59 360 2.0 4.0 0.00 0.00 0.00 50 1014.7
20260905101028 59 360 2.0 4.0 0.00 0.00 0.00 49 1014.7
20260905100529 60 360 0.0 4.0 0.00 0.00 0.00 49 1014.9
20260905100057 60 360 2.0 4.0 0.00 0.00 0.00 48 1014.8
20260905095527 60 360 1.0 4.0 0.00 0.00 0.00 48 1014.7
20260905095030 61 360 2.0 4.0 0.00 0.00 0.00 47 1014.6
20260905094547 61 360 1.0 6.0 0.00 0.00 0.00 46 1014.4
20260905094025 62 360 2.0 10.0 0.00 0.00 0.00 46 1014.4
20260905093530 62 360 3.0 10.0 0.00 0.00 0.00 45 1014.3
20260905093043 63 360 3.0 10.0 0.00 0.00 0.00 46 1014.2
20260905092530 62 360 3.0 5.0 0.00 0.00 0.00 46 1014.1
20260905092029 62 360 3.0 5.0 0.00 0.00 0.00 47 1014.1
20260905091608 62 360 1.0 5.0 0.00 0.00 0.00 47 1014.1
20260905091025 62 360 2.0 5.0 0.00 0.00 0.00 47 1014.0
20260905090527 62 360 1.0 4.0 0.00 0.00 0.00 46 1014.0
20260905090048 62 360 1.0 5.0 0.00 0.00 0.00 46 1014.0
20260905085526 62 360 3.0 5.0 0.00 0.00 0.00 45 1013.9
20260905085026 63 360 2.0 4.0 0.00 0.00 0.00 45 1014.0
20260905084606 63 360 1.0 4.0 0.00 0.00 0.00 44 1013.8
20260905084028 64 360 2.0 5.0 0.00 0.00 0.00 43 1013.8
20260905083526 64 360 1.0 5.0 0.00 0.00 0.00 42 1013.7
20260905083053 65 360 2.0 6.0 0.00 0.00 0.00 41 1013.8
20260905082525 66 360 2.0 6.0 0.00 0.00 0.00 41 1013.6
20260905082028 66 360 3.0 11.0 0.00 0.00 0.00 41 1013.5
20260905081547 66 360 4.0 11.0 0.00 0.00 0.00 40 1013.4
20260905081026 67 360 4.0 11.0 0.00 0.00 0.00 39 1013.5
20260905080525 67 360 4.0 15.0 0.00 0.00 0.00 38 1013.6
20260905080049 68 360 6.0 15.0 0.00 0.00 0.00 39 1013.4
20260905075528 67 360 8.0 13.0 0.00 0.00 0.00 39 1013.3
20260905075025 67 360 6.0 12.0 0.00 0.00 0.00 39 1013.4
20260905074550 67 360 7.0 17.0 0.00 0.00 0.00 38 1013.3
20260905074026 67 360 8.0 17.0 0.00 0.00 0.00 38 1013.3
20260905073528 66 360 7.0 15.0 0.00 0.00 0.00 39 1013.4
20260905073053 64 360 4.0 12.0 0.00 0.00 0.00 41 1013.3
20260905072528 62 360 2.0 12.0 0.00 0.00 0.00 41 1013.4
20260905072028 60 360 1.0 6.0 0.00 0.00 0.00 40 1013.4
20260905071550 59 0 0.0 2.0 0.00 0.00 0.00 38 1013.4
20260905071030 58 0 0.0 4.0 0.00 0.00 0.00 38 1013.4
20260905070528 58 0 1.0 8.0 0.00 0.00 0.00 39 1013.3
20260905070106 58 360 2.0 8.0 0.00 0.00 0.00 38 1012.9
20260905065529 58 360 1.0 4.0 0.00 0.00 0.00 40 1012.8
20260905065026 59 0 0.0 0.0 0.00 0.00 0.00 38 1012.1
20260905064547 59 0 0.0 4.0 0.00 0.00 0.00 39 1012.0
20260905064026 60 0 0.0 6.0 0.00 0.00 0.00 39 1012.0
20260905063526 59 360 3.0 6.0 0.00 0.00 0.00 37 1011.9
20260905063052 60 360 1.0 5.0 0.00 0.00 0.00 38 1011.9
20260905062527 59 360 3.0 5.0 0.00 0.00 0.00 36 1011.8
20260905062025 59 360 1.0 3.0 0.00 0.00 0.00 38 1011.8
20260905061548 59 360 1.0 4.0 0.00 0.00 0.00 38 1011.7
20260905061025 60 360 1.0 4.0 0.00 0.00 0.00 39 1011.7
20260905060526 60 0 0.0 4.0 0.00 0.00 0.00 38 1011.7
20260905060051 60 0 0.0 4.0 0.00 0.00 0.00 37 1011.6
20260905055526 60 360 3.0 4.0 0.00 0.00 0.00 37 1011.6
20260905055025 61 360 0.0 5.0 0.00 0.00 0.00 38 1011.4
20260905054555 61 0 1.0 5.0 0.00 0.00 0.00 35 1011.5
20260905054029 61 360 3.0 5.0 0.00 0.00 0.00 36 1011.4
20260905053526 61 0 0.0 4.0 0.00 0.00 0.00 35 1011.5
20260905053052 61 0 0.0 4.0 0.00 0.00 0.00 35 1011.4
20260905052526 61 360 2.0 4.0 0.00 0.00 0.00 35 1011.2
20260905052028 61 360 1.0 5.0 0.00 0.00 0.00 36 1011.2
20260905051551 61 360 2.0 5.0 0.00 0.00 0.00 35 1011.2
20260905051025 61 360 2.0 5.0 0.00 0.00 0.00 35 1011.3
20260905050525 63 360 0.0 3.0 0.00 0.00 0.00 35 1011.3
20260905050051 65 360 1.0 3.0 0.00 0.00 0.00 33 1011.3
20260905045526 66 0 0.0 1.0 0.00 0.00 0.00 31 1011.4
20260905045029 68 0 0.0 3.0 0.00 0.00 0.00 30 1011.4
20260905044546 69 0 0.0 3.0 0.00 0.00 0.00 28 1011.2
20260905044025 70 0 0.0 5.0 0.00 0.00 0.00 28 1011.3
20260905043525 71 0 0.0 5.0 0.00 0.00 0.00 26 1011.2
20260905043053 73 0 2.0 5.0 0.00 0.00 0.00 25 1011.2
20260905042527 73 360 0.0 4.0 0.00 0.00 0.00 23 1011.2
20260905042026 74 360 1.0 4.0 0.00 0.00 0.00 23 1011.3
20260905041556 74 0 1.0 3.0 0.00 0.00 0.00 23 1011.2
20260905041024 74 360 1.0 5.0 0.00 0.00 0.00 23 1011.1
20260905040527 73 0 2.0 5.0 0.00 0.00 0.00 24 1011.0
20260905040051 72 360 2.0 4.0 0.00 0.00 0.00 25 1010.9
20260905035526 70 360 1.0 4.0 0.00 0.00 0.00 26 1010.9
20260905035025 69 0 0.0 4.0 0.00 0.00 0.00 27 1010.8
20260905034556 68 0 1.0 4.0 0.00 0.00 0.00 28 1010.8
20260905034028 67 0 0.0 0.0 0.00 0.00 0.00 28 1010.8
20260905033526 67 0 0.0 4.0 0.00 0.00 0.00 30 1010.7
20260905033054 66 0 0.0 4.0 0.00 0.00 0.00 30 1010.7
20260905032526 66 360 1.0 4.0 0.00 0.00 0.00 29 1010.7
20260905032026 66 0 0.0 2.0 0.00 0.00 0.00 31 1010.7
20260905031551 67 0 0.0 2.0 0.00 0.00 0.00 32 1010.8
20260905031025 68 360 0.0 1.0 0.00 0.00 0.00 31 1010.6
20260905030526 69 0 0.0 2.0 0.00 0.00 0.00 29 1010.6
20260905030048 70 0 0.0 2.0 0.00 0.00 0.00 28 1010.5
20260905025527 71 0 0.0 2.0 0.00 0.00 0.00 27 1010.6
20260905025025 72 0 0.0 3.0 0.00 0.00 0.00 25 1010.5
20260905024544 73 360 0.0 3.0 0.00 0.00 0.00 24 1010.5
20260905024027 73 360 1.0 5.0 0.00 0.00 0.00 23 1010.5
20260905023525 73 360 2.0 5.0 0.00 0.00 0.00 23 1010.4
20260905023051 74 360 1.0 4.0 0.00 0.00 0.00 24 1010.4
20260905022532 75 360 1.0 5.0 0.00 0.00 0.00 23 1010.3
20260905022028 76 360 2.0 6.0 0.00 0.00 0.00 22 1010.3
20260905021550 76 360 3.0 6.0 0.00 0.00 0.00 21 1010.2
20260905021030 76 360 3.0 5.0 0.00 0.00 0.00 21 1010.1
20260905020525 77 360 2.0 5.0 0.00 0.00 0.00 21 1010.0
20260905020055 77 360 2.0 5.0 0.00 0.00 0.00 20 1009.9
20260905015525 78 360 3.0 5.0 0.00 0.00 0.00 20 1010.0
20260905015028 79 360 2.0 5.0 0.00 0.00 0.00 19 1009.9
20260905014546 79 360 2.0 5.0 0.00 0.00 0.00 19 1009.9
20260905014028 80 360 2.0 4.0 0.00 0.00 0.00 18 1009.8
20260905013529 81 0 0.0 0.0 0.00 0.00 0.00 18 1009.7
20260905013055 82 0 0.0 3.0 0.00 0.00 0.00 18 1009.6
20260905012526 83 0 0.0 3.0 0.00 0.00 0.00 17 1009.6
20260905012026 83 360 1.0 3.0 0.00 0.00 0.00 17 1009.5
20260905011554 84 360 1.0 3.0 0.00 0.00 0.00 16 1009.6
20260905011025 85 360 1.0 3.0 0.00 0.00 0.00 16 1009.5
20260905010525 85 360 0.0 3.0 0.00 0.00 0.00 17 1009.5
20260905005530 87 292 1.0 4.0 0.00 0.00 0.00 16 1009.4
20260905005026 87 286 2.0 4.0 0.00 0.00 0.00 16 1009.2
20260905004547 89 290 1.0 4.0 0.00 0.00 0.00 15 1009.0
20260905004026 90 290 2.0 4.0 0.00 0.00 0.00 14 1009.0
20260905003527 91 289 1.0 3.0 0.00 0.00 0.00 14 1008.9
20260905003051 91 288 1.0 5.0 0.00 0.00 0.00 14 1008.8
20260905002528 91 288 2.0 5.0 0.00 0.00 0.00 14 1008.9
20260905002027 92 296 2.0 5.0 0.00 0.00 0.00 13 1008.8
20260905001551 92 292 2.0 8.0 0.00 0.00 0.00 13 1008.7
20260905001027 92 298 2.0 8.0 0.00 0.00 0.00 12 1008.6
20260905000528 93 288 2.0 7.0 0.00 0.00 0.00 12 1008.6
20260905000050 93 306 3.0 7.0 0.00 0.00 0.00 12 1008.7
20260904235526 93 298 3.0 6.0 0.00 0.00 0.00 12 1008.6
20260904235027 93 306 2.0 8.0 0.00 0.00 0.00 11 1008.5
20260904234550 93 298 2.0 9.0 0.00 0.00 0.00 12 1008.6
20260904234026 93 314 5.0 9.0 0.00 0.00 0.00 12 1008.6
20260904233525 93 294 5.0 9.0 0.00 0.00 0.00 12 1008.4
20260904233050 93 307 3.0 9.0 0.00 0.00 0.00 12 1008.3
20260904232528 94 302 5.0 9.0 0.00 0.00 0.00 11 1008.4
20260904232028 94 286 3.0 7.0 0.00 0.00 0.00 12 1008.3
20260904231551 94 288 4.0 9.0 0.00 0.00 0.00 12 1008.4
20260904231025 94 292 3.0 9.0 0.00 0.00 0.00 12 1008.3
20260904230526 95 289 2.0 6.0 0.00 0.00 0.00 12 1008.2
20260904230057 95 262 2.0 9.0 0.00 0.00 0.00 12 1008.3
20260904225529 95 297 3.0 9.0 0.00 0.00 0.00 12 1008.3
20260904225026 95 75 2.0 10.0 0.00 0.00 0.00 12 1008.1
20260904224605 95 302 4.0 10.0 0.00 0.00 0.00 12 1008.1
20260904224028 95 284 3.0 7.0 0.00 0.00 0.00 12 1008.0
20260904223526 95 290 1.0 10.0 0.00 0.00 0.00 14 1008.1
20260904223055 94 346 2.0 10.0 0.00 0.00 0.00 13 1008.2
20260904222526 94 290 4.0 10.0 0.00 0.00 0.00 12 1008.1
20260904222026 95 275 4.0 10.0 0.00 0.00 0.00 12 1008.1
20260904221550 95 259 3.0 8.0 0.00 0.00 0.00 12 1008.2
20260904221026 95 287 1.0 8.0 0.00 0.00 0.00 12 1008.1
20260904220526 95 116 2.0 12.0 0.00 0.00 0.00 13 1008.2
20260904220049 95 198 5.0 12.0 0.00 0.00 0.00 12 1008.2
20260904215528 95 107 4.0 11.0 0.00 0.00 0.00 13 1008.1
20260904215027 95 41 2.0 12.0 0.00 0.00 0.00 13 1008.0
20260904214556 95 65 3.0 12.0 0.00 0.00 0.00 13 1008.0
20260904214028 95 61 3.0 10.0 0.00 0.00 0.00 14 1008.1
20260904213525 95 38 2.0 10.0 0.00 0.00 0.00 13 1008.0
20260904213054 95 34 3.0 10.0 0.00 0.00 0.00 14 1008.0
20260904212526 95 0 1.0 10.0 0.00 0.00 0.00 14 1007.8
20260904212027 94 78 4.0 10.0 0.00 0.00 0.00 14 1008.0
20260904211558 94 34 1.0 9.0 0.00 0.00 0.00 13 1008.0
20260904211026 94 0 3.0 12.0 0.00 0.00 0.00 13 1008.0
20260904210526 95 52 8.0 15.0 0.00 0.00 0.00 13 1007.9
20260904210056 95 46 4.0 15.0 0.00 0.00 0.00 13 1007.9
20260904205528 95 50 3.0 10.0 0.00 0.00 0.00 14 1008.0
20260904205026 95 296 1.0 7.0 0.00 0.00 0.00 14 1007.9
20260904204547 94 313 2.0 7.0 0.00 0.00 0.00 14 1008.0
20260904204029 94 311 2.0 9.0 0.00 0.00 0.00 14 1008.0
20260904203526 95 34 1.0 9.0 0.00 0.00 0.00 14 1008.1
20260904203054 95 41 3.0 11.0 0.00 0.00 0.00 15 1008.1
20260904202525 95 323 4.0 11.0 0.00 0.00 0.00 15 1008.2
20260904202025 95 330 4.0 11.0 0.00 0.00 0.00 14 1008.3
20260904201552 95 291 3.0 9.0 0.00 0.00 0.00 14 1008.2
20260904201028 95 284 3.0 14.0 0.00 0.00 0.00 14 1008.1
20260904200527 94 300 6.0 14.0 0.00 0.00 0.00 14 1008.1
20260904200049 95 264 4.0 13.0 0.00 0.00 0.00 14 1008.1
20260904195527 95 229 2.0 10.0 0.00 0.00 0.00 14 1008.3
20260904195026 94 319 2.0 13.0 0.00 0.00 0.00 15 1008.3
20260904194545 94 294 6.0 13.0 0.00 0.00 0.00 14 1008.3
20260904194027 94 261 4.0 9.0 0.00 0.00 0.00 15 1008.3
20260904193527 94 293 3.0 9.0 0.00 0.00 0.00 14 1008.2
20260904193058 94 284 5.0 12.0 0.00 0.00 0.00 15 1008.3
20260904192527 94 270 5.0 12.0 0.00 0.00 0.00 14 1008.5
20260904192026 94 296 6.0 11.0 0.00 0.00 0.00 14 1008.4
20260904191551 94 226 5.0 14.0 0.00 0.00 0.00 14 1008.4
20260904191025 93 247 5.0 14.0 0.00 0.00 0.00 15 1008.5
20260904190528 94 309 4.0 12.0 0.00 0.00 0.00 14 1008.4
20260904190051 93 317 6.0 12.0 0.00 0.00 0.00 15 1008.6
20260904185527 93 271 4.0 15.0 0.00 0.00 0.00 16 1008.6
20260904185027 93 301 7.0 15.0 0.00 0.00 0.00 15 1008.7
20260904184545 93 267 5.0 14.0 0.00 0.00 0.00 14 1008.8
20260904184027 93 282 5.0 15.0 0.00 0.00 0.00 14 1008.8
20260904183529 93 287 7.0 15.0 0.00 0.00 0.00 15 1008.8
20260904183053 92 292 3.0 17.0 0.00 0.00 0.00 15 1008.9
20260904182530 92 244 8.0 17.0 0.00 0.00 0.00 16 1008.9
20260904182031 92 225 6.0 15.0 0.00 0.00 0.00 16 1009.0
20260904181549 92 217 4.0 12.0 0.00 0.00 0.00 16 1009.2
20260904181030 92 286 4.0 12.0 0.00 0.00 0.00 17 1009.2
20260904180527 91 323 3.0 11.0 0.00 0.00 0.00 17 1009.4
20260904180047 91 227 3.0 14.0 0.00 0.00 0.00 16 1009.5
20260904175528 91 329 4.0 14.0 0.00 0.00 0.00 17 1009.6
20260904175026 91 275 7.0 14.0 0.00 0.00 0.00 17 1009.7
20260904174549 91 291 5.0 19.0 0.00 0.00 0.00 17 1009.6
20260904174026 91 210 5.0 19.0 0.00 0.00 0.00 18 1009.6
20260904173525 91 255 7.0 13.0 0.00 0.00 0.00 17 1009.7
20260904173056 91 292 4.0 11.0 0.00 0.00 0.00 18 1009.6
20260904172528 91 268 4.0 11.0 0.00 0.00 0.00 18 1009.7
20260904172027 91 288 4.0 11.0 0.00 0.00 0.00 18 1009.6
20260904171558 91 302 3.0 9.0 0.00 0.00 0.00 18 1009.7
20260904171026 90 291 3.0 11.0 0.00 0.00 0.00 18 1009.5
20260904170527 90 273 4.0 11.0 0.00 0.00 0.00 18 1009.7
20260904170052 90 263 5.0 11.0 0.00 0.00 0.00 18 1009.6
20260904165531 90 252 4.0 9.0 0.00 0.00 0.00 17 1009.6
20260904165027 90 300 3.0 9.0 0.00 0.00 0.00 18 1009.5
20260904164546 89 296 3.0 9.0 0.00 0.00 0.00 19 1009.5
20260904164027 89 289 3.0 10.0 0.00 0.00 0.00 18 1009.5
20260904163531 89 288 3.0 10.0 0.00 0.00 0.00 19 1009.6
20260904163044 88 313 3.0 15.0 0.00 0.00 0.00 20 1009.6
20260904162526 88 296 6.0 15.0 0.00 0.00 0.00 20 1009.6
20260904162026 88 293 6.0 12.0 0.00 0.00 0.00 19 1009.6
20260904161551 87 298 2.0 7.0 0.00 0.00 0.00 20 1009.7
20260904161028 87 286 3.0 8.0 0.00 0.00 0.00 20 1009.7
20260904160527 86 278 3.0 8.0 0.00 0.00 0.00 20 1009.6
20260904160051 86 302 2.0 11.0 0.00 0.00 0.00 20 1009.7
20260904155527 85 279 2.0 11.0 0.00 0.00 0.00 21 1009.7
20260904155025 85 268 4.0 11.0 0.00 0.00 0.00 21 1009.7
20260904154545 84 285 4.0 9.0 0.00 0.00 0.00 21 1009.7
20260904154025 84 286 3.0 11.0 0.00 0.00 0.00 21 1009.7
20260904153526 83 360 3.0 11.0 0.00 0.00 0.00 22 1009.7
20260904153054 82 360 5.0 11.0 0.00 0.00 0.00 22 1009.7
20260904152528 81 360 4.0 9.0 0.00 0.00 0.00 22 1009.6
20260904152025 81 360 3.0 12.0 0.00 0.00 0.00 23 1009.6
20260904151549 80 360 3.0 12.0 0.00 0.00 0.00 24 1009.7
20260904151026 79 360 3.0 12.0 0.00 0.00 0.00 25 1009.6
20260904150527 78 360 4.0 12.0 0.00 0.00 0.00 24 1009.5
20260904150047 78 360 6.0 12.0 0.00 0.00 0.00 25 1009.5
20260904145530 78 360 5.0 11.0 0.00 0.00 0.00 25 1009.6
20260904145027 77 360 4.0 11.0 0.00 0.00 0.00 26 1009.7
20260904144545 77 360 5.0 11.0 0.00 0.00 0.00 26 1009.7
20260904144025 76 360 3.0 9.0 0.00 0.00 0.00 26 1009.7
20260904143525 75 360 3.0 8.0 0.00 0.00 0.00 28 1009.6
20260904143049 73 360 1.0 6.0 0.00 0.00 0.00 31 1009.6
20260904142527 71 360 2.0 6.0 0.00 0.00 0.00 31 1009.8
20260904142027 70 0 0.0 3.0 0.00 0.00 0.00 37 1009.7
20260904141547 68 360 0.0 2.0 0.00 0.00 0.00 33 1009.7
20260904141025 66 0 0.0 3.0 0.00 0.00 0.00 35 1009.8
20260904140525 64 0 0.0 3.0 0.00 0.00 0.00 36 1009.9
20260904140106 62 0 0.0 0.0 0.00 0.00 0.00 40 1009.9
20260904135528 62 0 0.0 2.0 0.00 0.00 0.00 45 1009.9
20260904135030 61 0 0.0 6.0 0.00 0.00 0.00 45 1009.7
20260904134604 60 360 2.0 6.0 0.00 0.00 0.00 43 1009.7
20260904134031 58 360 3.0 5.0 0.00 0.00 0.00 45 1009.8
20260904133528 57 360 2.0 4.0 0.00 0.00 0.00 47 1009.8
20260904133055 56 360 2.0 6.0 0.00 0.00 0.00 47 1009.8
20260904132531 55 360 2.0 6.0 0.00 0.00 0.00 47 1009.7
20260904132029 55 360 4.0 9.0 0.00 0.00 0.00 48 1009.7
20260904131547 55 360 4.0 9.0 0.00 0.00 0.00 48 1009.5
20260904131027 54 360 5.0 9.0 0.00 0.00 0.00 48 1009.6
20260904130526 54 360 6.0 9.0 0.00 0.00 0.00 48 1009.5
20260904130051 54 360 3.0 9.0 0.00 0.00 0.00 49 1009.5